Regional Weather Roundup
Issued by NWS Newport/Morehead, NC

Current Version | Previous Version | Text Only | Print | Product List | Glossary On
Versions: 1 2 3 4 5 6 7 8 9 10 11 12 13 14 15 16 17 18 19 20 21 22 23 24 25 26 27 28 29 30 31 32 33 34 35 36 37 38 39 40 41 42 43 44 45 46 47 48 49 50
000
ASUS42 KMHX 260225
RWRMHX
WEATHER ROUNDUP FOR EASTERN NORTH CAROLINA
NATIONAL WEATHER SERVICE NEWPORT/MOREHEAD CITY NC
1000 PM EDT MON JUL 25 2016

NOTE: "FAIR" INDICATES FEW OR NO CLOUDS BELOW 12,000 FEET
WITH NO SIGNIFICANT WEATHER AND/OR OBSTRUCTIONS TO VISIBILITY

NCZ015>017-031-032-045>047-102-103-260300-
NORTH COAST

CITY           SKY/WX    TMP DP  RH WIND       PRES   REMARKS
EDENTON        PTCLDY    86  74  67 S12       30.00R
ELIZABETH CITY CLOUDY    85  75  72 SW13      29.99R
KITTY HAWK     PTCLDY    83  74  73 SW8       30.00R
MANTEO           N/A     83  78  84 SW16      30.01R

$$

NCZ045>047-081-094-103-104-260300-
CENTRAL COAST

CITY           SKY/WX    TMP DP  RH WIND       PRES   REMARKS
FRISCO         PTCLDY    82  76  81 SW12      30.03R

$$

NCZ095-097-098-100-101-260300-
SOUTHERN COAST

CITY           SKY/WX    TMP DP  RH WIND       PRES   REMARKS
BEAUFORT       CLEAR     83  76  79 SW15      30.04R
CEDAR ISLAND   NOT AVBL
JACKSONVILLE   CLEAR     81  75  82 SW6       30.03R
PINEY ISLAND   CLEAR    N/A N/A N/A S10       30.03
WILMINGTON     CLEAR     82  75  79 SW9       30.04R


$$

NCZ011>013-027>030-043-044-078>080-089-090>093-098-260300-
COASTAL PLAIN

CITY           SKY/WX    TMP DP  RH WIND       PRES   REMARKS
AHOSKIE        CLOUDY    82  77  85 S6        29.98R
CLINTON        PTCLDY    82  75  78 S3        30.03R
ELIZABETHTOWN  CLEAR     81  73  76 S6        30.03S
GOLDSBORO      CLOUDY    84  78  80 S9        29.99R
GREENVILLE     CLOUDY    82  75  78 SW10      30.02R
HAVELOCK       CLEAR     82  76  81 S7        30.04R
KENANSVILLE    NOT AVBL
KINSTON        PTCLDY    84  72  65 S10       30.02R
NEW BERN       CLEAR     81  75  82 SW7       30.03R
RICHLANDS      PTCLDY    80  74  81 S8        30.03R
ROCKY MOUNT    CLOUDY    84  75  74 S8        29.98R
WASHINGTON     NOT AVBL
WHITEVILLE     CLEAR     81  73  76 S6        30.03S

$$

AMZ130-135-150-152-154-156-158-170-250-252-270-ANZ085-086-088-633-658-670-260300-
MARINE OBSERVATIONS

STATION/POSITION TIME  TEMP    WIND        PRES    WAVE   SWELL
                       AIR SEA DIR/SP/G            HT/PER HT/PER
                 (UTC) (F)     (DEG/KT/KT) (MB)    (FT/S) (FT/S)
CHESAPEAKE LIGHT NOT AVBL
64 E VA BEACH    0150   83 80  210/ 17/ 19 1015.0    4/ 5   2/ 9
DUCK             0100   86 66  200/ 18/ 22   N/A
2 E DUCK         0111      71                N/A     2/ 9
OREGON INLET     0100   85 86  200/ 19/ 23   N/A
13E OREGON INLT  0200      83                N/A     3/ 4   2/ 8
HATTERAS CG      0100   83 83  220/ 11/ 17   N/A
DIAMOND BUOY     0150   85 85  220/ 17/ 21 1016.8    4/ 5   2/ 9
CAPE LOOKOUT     0200   84     220/ 12/ 14 1016.9
BEAUFORT LAB     0100   84 85  220/ 10/ 15   N/A
30 SE NEW RVR IN 0208   84 85  220/ 16/ 19 1017.2
30 SE NEW RVR IN 0125      85                N/A     4/ 4
27 SE WRIGHTSVLE 0208   84 85  220/ 16/ 19 1017.6
5 SE WRIGHTSVLE  0208   83 83  230/ 14/ 17 1018.1
225 S CAPE HAT   0150   84 85  190/ 10/ 12 1018.9    2/ 8   2/ 8
41 SE CHARLESTON 0150   85 86  200/ 12/ 16 1017.4    2/ 4   2/ 8

$$




USA.gov is the U.S. government's official web portal to all federal, state and local government web resources and services.